User: anonymous   Login
Location: Unspecified
(0.0000°N, 0.0000°E)
Time: 10:15:26
(UTC+00:00)
Language:

Alouette 1 - Orbit

View from above orbital plane
View from above orbital plane
View from above satellite
View from above satellite

Ground track
Ground track

The orbit data is extracted from the following two-line orbital elements,

1 00424U 62049A   16272.13616185  .00000048  00000-0  44421-4 0  9991
2 00424  80.4688 166.2330 0023772  31.9704 121.4288 13.69064731695615
Epoch (UTC): 28 September 2016 03:16:04
Eccentricity: 0.0023772
inclination: 80.4688°
perigee height: 985 km
apogee height: 1020 km
right ascension of ascending node: 166.2330°
argument of perigee: 31.9704°
revolutions per day: 13.69064731
mean anomaly at epoch: 121.4288°
orbit number at epoch: 69561

The dashed part of the orbit path shows where the satellite is in the earth's shadow,  

DLR